{"data":{"norad_id":84188,"epoch":"2026-05-24T04:04:00.215616Z","epoch_age_seconds":153702,"freshness":"FRESH","line1":"1 84188U          26144.16944694  .00448022  00000+0  15047+0 0  9994","line2":"2 84188  65.1087 103.8837 3318902 358.7008   0.6574  8.46254701 54306","mean_motion":8.46254701,"eccentricity":0.3318902,"inclination_deg":65.1087,"raan_deg":103.8837,"arg_perigee_deg":358.7008,"mean_anomaly_deg":0.6574,"bstar":0.15047,"rev_number":5430,"period_min":170.16153627252,"perigee_km":417.7938936516,"apogee_km":7169.686661817,"semimajor_km":10171.877277734,"source":"CELESTRAK","updated_at":"2026-05-25T13:38:11.426038Z"}}